                ,  0.865,  0.962,  1.058,  1.155,  1.251,  1.348,  1.445,  1.541,  1.638,  1.734,  1.831,  1.928,  2.024,  2.121,  2.217,  2.314,  2.410,  2.507,  2.604,  2.700,  2.797,  2.893,  2.990,  3.087,  3.183,  3.280,  3.376,  3.473,  3.570,  3.666,  3.763,  3.859,  3.956,  4.053,  4.149,  4.246,  4.342,  4.439,  4.536,  4.632,  4.729,  4.825,  4.922,  5.018,  5.115,  5.212,  5.308,  5.405,  5.501,  5.598,  5.695,  5.791
1999/02/26 00:00,  999.0,  999.0,  999.0,  -59.1,  -57.0,  -56.5,  -57.0,  -55.8,  -56.0,  -56.4,  -57.5,  -56.6,  -57.8,  -57.0,  -57.7,  -55.4,  -58.0,  -57.4,  -58.1,  -55.6,  -57.8,  -56.5,  -58.3,  -57.2,  -58.7,  -57.0,  -58.4,  -56.4,  -58.3,  -57.6,  -57.8,  -56.5,  -58.4,  -57.6,  -58.1,  -56.7,  -58.2,  -57.0,  -57.7,  -56.8,  -58.6,  -58.0,  -58.1,  -56.5,  -58.6,  -57.8,  -59.0,  -56.8,  -59.0,  -58.1,  -58.5,  -56.9
1999/02/26 00:10,  999.0,  999.0,  999.0,  -57.9,  -57.0,  -56.1,  -57.4,  -56.3,  -56.9,  -57.0,  -58.0,  -56.9,  -57.1,  -57.4,  -57.5,  -56.4,  -57.5,  -57.2,  -58.2,  -57.1,  -58.3,  -56.9,  -58.8,  -56.4,  -58.0,  -57.8,  -58.6,  -56.6,  -58.5,  -57.7,  -58.2,  -57.2,  -58.7,  -57.7,  -58.7,  -57.2,  -58.7,  -57.5,  -59.1,  -57.2,  -58.9,  -58.4,  -59.1,  -56.8,  -58.4,  -57.5,  -59.0,  -57.3,  -58.5,  -57.8,  -58.5,  -57.1
1999/02/26 00:20,  999.0,  999.0,  999.0,  -58.7,  -57.5,  -56.5,  -57.6,  -57.4,  -56.2,  -57.2,  -58.5,  -56.2,  -58.3,  -57.7,  -56.4,  -54.6,  -56.9,  -56.9,  -58.5,  -56.3,  -58.5,  -58.0,  -59.2,  -56.8,  -58.4,  -57.7,  -58.6,  -56.5,  -58.4,  -57.8,  -58.7,  -57.2,  -59.5,  -58.0,  -58.3,  -56.4,  -59.3,  -57.6,  -59.4,  -56.5,  -58.7,  -57.9,  -58.9,  -55.8,  -59.1,  -58.5,  -58.9,  -56.8,  -59.1,  -58.1,  -60.1,  -57.1
1999/02/26 00:30,  999.0,  999.0,  999.0,  -58.8,  -56.7,  -56.4,  -57.5,  -56.8,  -56.4,  -56.3,  -57.5,  -56.1,  -58.0,  -57.2,  -57.8,  -57.0,  -58.6,  -57.5,  -58.4,  -57.1,  -58.5,  -57.8,  -58.5,  -57.1,  -58.6,  -57.9,  -58.8,  -56.8,  -58.3,  -58.0,  -58.5,  -57.4,  -58.7,  -57.4,  -58.4,  -57.1,  -58.4,  -58.3,  -59.3,  -57.1,  -58.4,  -57.8,  -58.7,  -57.3,  -58.5,  -57.7,  -58.5,  -57.4,  -58.8,  -57.9,  -59.3,  -57.1
1999/02/26 00:40,  999.0,  999.0,  999.0,  -54.8,  -56.3,  -56.0,  -56.7,  -56.4,  -56.3,  -55.8,  -57.1,  -56.4,  -58.4,  -57.4,  -57.1,  -56.1,  -58.0,  -57.9,  -57.5,  -57.0,  -58.6,  -57.7,  -58.8,  -56.6,  -59.0,  -58.0,  -58.6,  -56.6,  -58.4,  -57.3,  -58.5,  -57.1,  -58.5,  -57.9,  -59.1,  -57.6,  -58.3,  -57.8,  -59.0,  -57.2,  -58.9,  -57.9,  -58.8,  -56.8,  -59.1,  -58.2,  -58.7,  -57.2,  -59.1,  -57.8,  -58.9,  -56.8
1999/02/26 00:50,  999.0,  999.0,  999.0,  -58.7,  -56.6,  -55.9,  -57.1,  -56.7,  -56.5,  -57.2,  -57.9,  -55.2,  -55.2,  -54.6,  -56.6,  -55.1,  -56.7,  -57.7,  -58.8,  -56.8,  -58.7,  -57.6,  -58.6,  -57.1,  -58.2,  -58.1,  -58.6,  -56.4,  -58.3,  -57.6,  -59.1,  -57.3,  -58.3,  -57.9,  -58.4,  -56.9,  -59.2,  -57.9,  -58.3,  -57.4,  -58.9,  -58.2,  -58.2,  -56.6,  -58.3,  -57.6,  -59.6,  -57.4,  -58.3,  -57.8,  -59.2,  -57.1
1999/02/26 01:00,  999.0,  999.0,  999.0,  -59.0,  -56.5,  -55.8,  -57.1,  -56.2,  -54.9,  -57.5,  -55.8,  -55.9,  -57.1,  -56.1,  -58.7,  -56.0,  -58.1,  -56.6,  -57.6,  -56.8,  -58.7,  -57.8,  -59.1,  -57.0,  -58.7,  -57.8,  -58.5,  -56.4,  -58.3,  -57.5,  -58.7,  -57.1,  -58.6,  -57.9,  -58.5,  -57.1,  -58.4,  -57.3,  -59.3,  -57.2,  -58.8,  -58.1,  -58.9,  -57.0,  -58.9,  -58.0,  -58.8,  -57.2,  -59.0,  -57.8,  -58.2,  -57.4
1999/02/26 01:10,  999.0,  999.0,  999.0,  -60.9,  -57.4,  -55.9,  -57.3,  -56.6,  -56.9,  -57.2,  -58.7,  -55.4,  -57.3,  -57.1,  -57.5,  -57.9,  -58.1,  -57.6,  -58.2,  -57.2,  -57.8,  -57.9,  -58.4,  -57.0,  -58.2,  -57.5,  -59.3,  -56.8,  -57.1,  -57.4,  -58.3,  -56.8,  -58.8,  -57.9,  -58.3,  -57.3,  -58.6,  -57.8,  -58.3,  -57.1,  -57.8,  -58.0,  -58.1,  -57.0,  -57.7,  -57.7,  -59.5,  -56.8,  -58.2,  -58.0,  -58.8,  -56.8
1999/02/26 01:20,  999.0,  999.0,  999.0,  -60.4,  -57.5,  -56.3,  -57.4,  -56.5,  -56.8,  -57.3,  -58.3,  -56.3,  -58.2,  -57.6,  -57.6,  -57.2,  -57.6,  -57.3,  -57.7,  -56.2,  -57.9,  -57.5,  -58.6,  -56.9,  -58.7,  -57.5,  -58.8,  -56.9,  -58.5,  -57.8,  -58.9,  -56.8,  -58.6,  -57.7,  -58.9,  -57.0,  -58.7,  -57.7,  -58.9,  -57.2,  -58.5,  -58.3,  -59.4,  -56.5,  -58.6,  -57.6,  -58.9,  -57.1,  -58.3,  -57.8,  -58.6,  -57.2
1999/02/26 01:30,  999.0,  999.0,  999.0,  -61.5,  -57.8,  -56.3,  -57.4,  -56.3,  -56.6,  -57.5,  -57.9,  -56.5,  -58.0,  -56.7,  -58.2,  -56.4,  -57.0,  -56.5,  -58.4,  -56.5,  -58.3,  -58.0,  -58.8,  -56.8,  -58.7,  -57.7,  -58.8,  -56.9,  -58.6,  -57.9,  -58.7,  -57.1,  -58.3,  -57.9,  -58.8,  -57.2,  -58.9,  -57.8,  -58.6,  -56.9,  -58.7,  -58.0,  -58.8,  -56.3,  -58.4,  -57.8,  -58.5,  -57.0,  -58.4,  -57.9,  -59.0,  -57.0
1999/02/26 01:40,  999.0,  999.0,  999.0,  -59.5,  -57.4,  -56.7,  -57.3,  -56.1,  -56.3,  -57.1,  -58.2,  -55.4,  -57.9,  -57.0,  -58.4,  -56.4,  -58.4,  -58.0,  -59.4,  -56.4,  -58.2,  -57.6,  -58.7,  -56.1,  -58.6,  -57.8,  -58.7,  -56.6,  -58.4,  -57.7,  -58.7,  -57.5,  -58.9,  -58.4,  -58.3,  -57.0,  -58.3,  -57.5,  -58.6,  -56.4,  -58.2,  -57.5,  -59.2,  -56.3,  -58.6,  -57.8,  -59.3,  -57.6,  -58.7,  -57.2,  -58.9,  -56.7
1999/02/26 01:50,  999.0,  999.0,  999.0,  -57.7,  -56.7,  -56.0,  -57.2,  -56.3,  -56.4,  -56.5,  -58.3,  -56.4,  -58.0,  -57.2,  -58.1,  -56.6,  -58.5,  -57.3,  -58.3,  -56.8,  -58.4,  -58.1,  -58.6,  -56.9,  -58.2,  -57.2,  -59.1,  -56.4,  -59.1,  -58.0,  -58.8,  -56.8,  -59.0,  -57.6,  -58.8,  -56.9,  -58.8,  -57.9,  -58.0,  -56.6,  -57.9,  -57.6,  -58.9,  -56.8,  -58.6,  -58.0,  -58.5,  -57.2,  -58.8,  -58.0,  -58.9,  -57.1
1999/02/26 02:00,  999.0,  999.0,  999.0,  -59.9,  -58.0,  -56.1,  -57.0,  -56.1,  -56.7,  -59.1,  -57.6,  -56.7,  -59.1,  -56.9,  -58.6,  -56.8,  -58.2,  -57.8,  -58.3,  -55.6,  -57.4,  -57.1,  -58.1,  -56.6,  -57.5,  -57.5,  -58.2,  -56.8,  -58.2,  -57.6,  -58.8,  -56.7,  -58.4,  -57.6,  -58.3,  -57.1,  -58.1,  -57.5,  -58.5,  -56.3,  -58.6,  -57.9,  -58.8,  -55.9,  -58.5,  -57.8,  -59.2,  -56.2,  -58.3,  -57.7,  -58.7,  -57.3
1999/02/26 02:10,  999.0,  999.0,  999.0,  -60.2,  -58.3,  -56.2,  -57.3,  -57.1,  -57.0,  -57.1,  -57.2,  -57.0,  -57.6,  -57.6,  -58.1,  -57.1,  -58.5,  -58.1,  -58.3,  -57.0,  -58.7,  -58.0,  -58.8,  -57.7,  -58.4,  -58.2,  -58.6,  -56.9,  -58.8,  -58.1,  -58.3,  -57.4,  -59.0,  -58.0,  -58.7,  -57.5,  -58.5,  -57.7,  -58.5,  -56.8,  -57.3,  -57.2,  -57.8,  -56.5,  -57.9,  -57.5,  -58.5,  -57.6,  -58.8,  -57.6,  -59.0,  -56.8
1999/02/26 02:20,  999.0,  999.0,  999.0,  -61.2,  -56.9,  -56.4,  -57.0,  -55.8,  -56.6,  -56.0,  -58.1,  -57.0,  -56.7,  -57.4,  -58.4,  -57.1,  -58.7,  -58.0,  -59.3,  -57.4,  -58.7,  -57.8,  -59.2,  -57.6,  -59.2,  -57.7,  -59.2,  -57.0,  -59.4,  -58.5,  -59.1,  -57.3,  -59.6,  -57.9,  -58.7,  -57.6,  -58.7,  -57.0,  -57.7,  -55.5,  -57.5,  -57.3,  -58.7,  -57.1,  -58.8,  -58.0,  -58.4,  -56.8,  -58.5,  -57.6,  -58.8,  -57.0
1999/02/26 02:30,  999.0,  999.0,  999.0,  -59.0,  -48.2,  -47.3,  -51.1,  -54.6,  -56.6,  -58.2,  -58.9,  -56.4,  -58.7,  -59.9,  -60.7,  -58.4,  -59.0,  -58.0,  -59.2,  -57.4,  -58.7,  -57.4,  -59.0,  -56.3,  -58.6,  -58.6,  -58.8,  -57.2,  -58.7,  -58.5,  -59.3,  -57.0,  -58.9,  -58.2,  -58.7,  -57.0,  -58.7,  -57.8,  -58.7,  -57.3,  -58.5,  -58.7,  -58.6,  -57.0,  -58.4,  -58.0,  -59.1,  -57.2,  -58.8,  -57.8,  -58.7,  -56.8
1999/02/26 02:40,  -65.5,  999.0,  999.0,  -58.4,  -57.2,  -56.5,  -56.2,  -55.6,  -56.6,  -56.9,  -57.7,  -57.1,  -57.9,  -57.4,  -57.5,  -56.9,  -57.9,  -58.3,  -59.0,  -57.7,  -58.5,  -58.2,  -59.3,  -57.6,  -58.6,  -57.9,  -58.5,  -57.1,  -58.6,  -57.7,  -58.8,  -57.4,  -58.6,  -58.1,  -59.0,  -57.5,  -58.6,  -57.9,  -58.2,  -57.4,  -58.4,  -57.9,  -58.5,  -56.9,  -58.8,  -57.9,  -58.7,  -57.2,  -58.7,  -58.5,  -58.7,  -57.6
1999/02/26 02:50,  999.0,  999.0,  999.0,  -56.2,  -57.7,  -56.4,  -56.5,  -56.8,  -55.9,  -57.6,  -58.9,  -57.1,  -58.2,  -57.2,  -57.5,  -56.8,  -57.7,  -57.8,  -59.1,  -57.5,  -58.0,  -57.4,  -58.3,  -57.4,  -58.3,  -58.1,  -58.9,  -57.6,  -58.4,  -58.2,  -58.4,  -57.8,  -58.5,  -58.0,  -58.8,  -57.6,  -58.9,  -58.0,  -59.1,  -57.8,  -58.7,  -58.0,  -58.9,  -57.0,  -58.3,  -57.7,  -58.5,  -57.5,  -59.1,  -58.4,  -58.9,  -57.7
1999/02/26 03:00,  999.0,  999.0,  999.0,  -58.1,  -56.7,  -55.3,  -55.9,  -56.0,  -56.3,  -57.4,  -58.0,  -57.1,  -58.2,  -57.3,  -57.8,  -56.7,  -57.8,  -58.0,  -58.5,  -57.0,  -58.7,  -58.0,  -58.6,  -56.9,  -58.5,  -58.1,  -58.8,  -57.0,  -58.6,  -58.2,  -58.5,  -56.9,  -58.5,  -57.8,  -58.9,  -57.4,  -58.7,  -58.0,  -58.5,  -57.0,  -58.5,  -58.0,  -58.3,  -56.7,  -58.3,  -58.0,  -58.4,  -56.7,  -58.5,  -58.0,  -58.8,  -57.0
1999/02/26 03:10,  999.0,  999.0,  999.0,  -60.7,  -57.1,  -55.9,  -56.5,  -56.7,  -55.8,  -56.8,  -57.9,  -56.7,  -57.6,  -57.1,  -57.6,  -57.0,  -58.2,  -57.8,  -58.4,  -57.3,  -58.0,  -56.9,  -58.8,  -57.2,  -58.4,  -58.2,  -58.6,  -57.0,  -58.5,  -58.5,  -58.5,  -57.8,  -58.8,  -58.5,  -58.7,  -57.2,  -58.5,  -58.3,  -58.7,  -57.1,  -58.5,  -58.0,  -59.0,  -56.9,  -58.0,  -57.6,  -58.7,  -57.2,  -59.2,  -57.9,  -58.4,  -57.4
1999/02/26 03:20,  999.0,  999.0,  999.0,  -58.7,  -56.9,  -55.6,  -56.5,  -55.9,  -56.4,  -57.2,  -57.6,  -56.1,  -58.4,  -57.1,  -57.6,  -56.5,  -58.3,  -57.9,  -58.1,  -57.1,  -58.5,  -58.3,  -58.4,  -57.4,  -58.6,  -57.7,  -58.9,  -57.1,  -59.2,  -58.0,  -58.6,  -57.0,  -58.8,  -58.1,  -58.9,  -57.1,  -58.4,  -57.6,  -59.2,  -57.0,  -58.4,  -57.6,  -58.5,  -57.2,  -58.4,  -57.9,  -58.5,  -57.2,  -58.6,  -57.8,  -58.5,  -56.9
1999/02/26 03:30,  999.0,  999.0,  999.0,  -59.7,  -57.0,  -56.2,  -57.3,  -56.5,  -56.6,  -57.7,  -58.4,  -57.1,  -58.1,  -57.2,  -58.2,  -56.8,  -58.3,  -58.0,  -58.0,  -57.2,  -58.3,  -57.9,  -58.9,  -57.4,  -58.5,  -57.8,  -58.6,  -57.1,  -58.4,  -57.9,  -58.8,  -57.4,  -58.8,  -58.3,  -59.3,  -57.0,  -59.1,  -57.9,  -58.9,  -57.0,  -58.9,  -58.0,  -58.7,  -57.1,  -58.9,  -58.0,  -58.9,  -57.3,  -58.5,  -58.1,  -59.2,  -56.9
1999/02/26 03:40,  999.0,  999.0,  999.0,  -61.1,  -56.5,  -55.6,  -56.6,  -56.1,  -56.7,  -57.3,  -58.2,  -55.8,  -58.4,  -57.3,  -58.2,  -56.9,  -58.2,  -57.9,  -58.4,  -56.9,  -58.0,  -58.2,  -58.6,  -56.7,  -58.7,  -57.9,  -58.8,  -56.8,  -59.6,  -58.4,  -58.7,  -56.8,  -58.2,  -58.1,  -58.7,  -56.7,  -58.2,  -57.7,  -58.3,  -57.0,  -58.5,  -57.4,  -58.5,  -56.5,  -58.3,  -57.3,  -58.7,  -57.4,  -58.7,  -57.5,  -58.7,  -57.2
1999/02/26 03:50,  999.0,  999.0,  999.0,  -60.1,  -56.9,  -55.9,  -56.9,  -56.7,  -55.7,  -57.2,  -57.9,  -56.5,  -58.0,  -57.3,  -57.9,  -57.1,  -58.2,  -58.1,  -59.2,  -57.0,  -58.7,  -58.6,  -58.6,  -57.1,  -58.0,  -58.6,  -58.9,  -56.9,  -58.7,  -58.2,  -58.9,  -57.4,  -58.7,  -57.8,  -58.7,  -57.0,  -58.4,  -57.5,  -58.2,  -57.1,  -58.5,  -58.1,  -58.5,  -57.2,  -58.7,  -57.9,  -58.8,  -56.9,  -58.9,  -57.9,  -58.3,  -56.9
1999/02/26 04:00,  999.0,  999.0,  999.0,  -61.5,  -56.0,  -55.2,  -55.7,  -55.9,  -56.5,  -56.8,  -58.1,  -56.2,  -58.1,  -57.2,  -58.4,  -56.4,  -58.0,  -58.1,  -58.6,  -56.5,  -58.6,  -57.8,  -59.1,  -57.3,  -58.4,  -58.0,  -58.7,  -56.7,  -58.7,  -58.2,  -59.0,  -56.8,  -58.5,  -58.3,  -58.7,  -57.0,  -58.7,  -57.3,  -58.6,  -56.8,  -58.2,  -57.8,  -58.5,  -56.9,  -58.8,  -57.8,  -59.1,  -57.1,  -58.6,  -57.8,  -58.9,  -56.7
1999/02/26 04:10,  999.0,  999.0,  999.0,  -57.1,  -54.8,  -54.9,  -56.7,  -56.1,  -56.2,  -56.4,  -56.8,  -56.8,  -58.4,  -57.5,  -58.0,  -57.2,  -58.4,  -58.1,  -58.6,  -57.3,  -58.7,  -58.4,  -58.4,  -57.1,  -58.4,  -58.3,  -58.7,  -56.9,  -58.9,  -57.9,  -58.7,  -57.4,  -58.6,  -58.1,  -59.0,  -57.5,  -58.7,  -58.2,  -59.2,  -57.4,  -59.2,  -58.0,  -58.7,  -57.0,  -58.6,  -58.4,  -59.2,  -57.5,  -58.8,  -57.9,  -58.6,  -57.3
1999/02/26 04:20,  999.0,  999.0,  999.0,  -61.1,  -55.8,  -55.8,  -54.9,  -55.5,  -55.7,  -56.8,  -57.4,  -57.1,  -57.7,  -57.3,  -57.9,  -57.1,  -58.6,  -57.8,  -58.7,  -57.0,  -58.2,  -57.7,  -58.9,  -57.4,  -58.6,  -57.7,  -58.5,  -56.8,  -58.8,  -58.4,  -59.1,  -56.9,  -58.6,  -57.8,  -58.5,  -57.6,  -58.8,  -57.9,  -58.9,  -57.2,  -58.9,  -58.0,  -58.9,  -56.9,  -58.6,  -57.8,  -58.6,  -57.4,  -58.6,  -58.2,  -58.7,  -57.5
1999/02/26 04:30,  999.0,  999.0,  999.0,  -57.8,  999.0,  -53.5,  -55.0,  -56.1,  -55.5,  -56.7,  -57.6,  -56.9,  -57.9,  -57.0,  -57.8,  -57.4,  -58.3,  -58.1,  -58.4,  -57.7,  -58.5,  -58.0,  -58.2,  -57.6,  -58.2,  -58.6,  -58.4,  -57.6,  -58.3,  -58.8,  -58.3,  -57.9,  -58.4,  -58.5,  -58.7,  -57.7,  -58.8,  -58.2,  -59.0,  -57.7,  -58.8,  -57.9,  -59.2,  -57.1,  -58.7,  -58.6,  -58.9,  -58.2,  -58.6,  -58.4,  -58.6,  -57.9
1999/02/26 04:40,  999.0,  999.0,  999.0,  -59.7,  -57.3,  -56.0,  -56.6,  -56.7,  -56.2,  -57.1,  -57.0,  -56.7,  -58.2,  -58.4,  -58.0,  -57.6,  -58.2,  -58.0,  -58.0,  -57.7,  -57.9,  -58.0,  -58.3,  -57.5,  -58.5,  -58.1,  -58.5,  -57.8,  -58.0,  -58.1,  -58.5,  -57.6,  -58.5,  -58.3,  -58.1,  -57.7,  -58.2,  -58.7,  -58.9,  -58.1,  -58.7,  -58.3,  -58.6,  -57.3,  -58.6,  -58.5,  -58.8,  -57.6,  -58.2,  -57.9,  -58.2,  -57.3
1999/02/26 04:50,  999.0,  999.0,  999.0,  -59.3,  -57.2,  -55.5,  -55.3,  -56.0,  -54.8,  -54.7,  -56.4,  -56.5,  -58.1,  -56.4,  -57.0,  -56.4,  -58.2,  -58.0,  -58.1,  -57.2,  -58.5,  -57.8,  -58.5,  -57.2,  -58.7,  -58.6,  -58.6,  -57.2,  -58.4,  -58.2,  -58.7,  -57.6,  -58.6,  -58.2,  -58.7,  -57.4,  -58.5,  -57.5,  -58.8,  -57.3,  -58.3,  -58.3,  -59.0,  -57.2,  -58.2,  -58.2,  -59.0,  -57.7,  -58.0,  -58.2,  -58.7,  -57.5
1999/02/26 05:00,  999.0,  999.0,  999.0,  -57.0,  -58.2,  -55.2,  -55.9,  -56.7,  -55.2,  -55.0,  -57.4,  -56.5,  -57.8,  -57.7,  -58.1,  -56.5,  -58.2,  -58.0,  -58.0,  -57.5,  -58.4,  -58.5,  -58.6,  -57.6,  -58.5,  -57.9,  -58.7,  -57.7,  -58.4,  -57.9,  -58.8,  -57.8,  -58.8,  -58.6,  -58.4,  -57.5,  -58.4,  -58.0,  -58.7,  -57.2,  -58.9,  -58.0,  -58.4,  -57.5,  -58.5,  -58.1,  -58.6,  -57.4,  -58.7,  -58.0,  -58.0,  -57.7
1999/02/26 05:10,  999.0,  -66.2,  999.0,  -58.2,  -56.8,  -55.6,  -54.3,  -55.6,  -54.0,  -56.7,  -56.6,  -56.9,  -58.3,  -57.0,  -58.3,  -57.5,  -57.9,  -57.9,  -58.0,  -57.2,  -58.5,  -57.5,  -58.3,  -57.6,  -58.8,  -58.3,  -59.1,  -57.7,  -58.6,  -57.9,  -57.7,  -57.7,  -58.2,  -58.0,  -58.9,  -57.9,  -58.5,  -57.7,  -59.6,  -57.4,  -57.9,  -57.8,  -58.2,  -57.4,  -58.1,  -57.8,  -58.7,  -57.7,  -57.7,  -58.5,  -58.8,  -57.7
1999/02/26 05:20,  999.0,  999.0,  999.0,  -60.4,  -56.4,  -55.4,  -56.3,  -56.3,  -54.4,  -57.2,  -57.0,  -56.9,  -57.5,  -57.1,  -58.0,  -57.6,  -57.9,  -57.4,  -58.1,  -57.5,  -58.8,  -58.5,  -58.6,  -57.4,  -58.4,  -57.7,  -58.1,  -57.6,  -58.5,  -58.2,  -58.5,  -57.8,  -58.1,  -58.3,  -59.0,  -58.4,  -58.6,  -57.4,  -58.2,  -57.4,  -58.3,  -57.9,  -58.5,  -57.3,  -58.4,  -58.5,  -58.6,  -57.8,  -58.1,  -58.5,  -58.3,  -57.6
1999/02/26 05:30,  999.0,  999.0,  999.0,  999.0,  -57.2,  -55.0,  -56.5,  -56.8,  -55.5,  -56.2,  -57.5,  -56.2,  -56.8,  -56.3,  -58.0,  -57.3,  -57.9,  -58.0,  -58.6,  -57.3,  -58.2,  -58.1,  -58.5,  -57.5,  -58.6,  -58.5,  -58.2,  -57.3,  -58.8,  -57.9,  -59.0,  -57.4,  -58.5,  -58.0,  -58.9,  -57.9,  -58.5,  -58.0,  -58.7,  -57.2,  -58.3,  -58.1,  -58.1,  -57.9,  -58.4,  -58.1,  -58.6,  -57.6,  -58.3,  -58.2,  -58.9,  -57.3
1999/02/26 05:40,  999.0,  999.0,  999.0,  999.0,  -57.8,  -56.0,  -56.0,  -54.8,  -55.9,  -56.6,  -56.0,  -56.0,  -58.1,  -56.6,  -57.3,  -56.3,  -57.6,  -57.4,  -57.9,  -57.7,  -58.1,  -57.6,  -58.5,  -57.1,  -58.2,  -57.8,  -58.3,  -56.8,  -57.7,  -57.2,  -58.3,  -57.4,  -58.1,  -58.0,  -58.2,  -56.6,  -58.2,  -58.5,  -58.2,  -57.3,  -57.7,  -57.4,  -58.5,  -56.3,  -58.2,  -57.5,  -58.9,  -57.8,  -58.1,  -57.6,  -58.5,  -57.8
1999/02/26 05:50,  999.0,  999.0,  999.0,  -59.2,  -54.9,  -55.0,  -54.8,  -52.6,  -51.6,  -50.9,  999.0,  -51.0,  -54.8,  -53.2,  999.0,  -52.9,  -55.3,  -56.4,  -56.1,  -56.7,  -57.4,  -57.9,  -58.3,  -57.4,  -58.3,  -58.3,  -58.3,  -56.8,  -58.4,  -57.9,  -58.4,  -57.3,  -58.5,  -57.5,  -58.2,  -57.2,  -58.7,  -57.7,  -58.3,  -57.3,  -58.6,  -58.0,  -58.2,  -57.3,  -58.4,  -57.4,  -58.6,  -57.0,  -57.7,  -58.1,  -59.0,  -57.2
1999/02/26 06:00,  999.0,  999.0,  999.0,  999.0,  -60.3,  -47.6,  999.0,  999.0,  999.0,  -41.6,  -43.7,  -41.9,  -43.0,  -45.4,  -47.5,  -51.8,  -52.6,  -55.6,  -56.3,  -55.9,  -57.9,  -57.2,  -57.7,  -56.9,  -57.8,  -57.6,  -58.4,  -57.4,  -57.9,  -57.5,  -59.0,  -57.4,  -57.5,  -57.9,  -58.7,  -57.1,  -58.3,  -57.1,  -58.6,  -57.4,  -58.7,  -57.6,  -58.6,  -56.6,  -58.3,  -57.4,  -58.6,  -57.4,  -57.9,  -57.5,  -58.5,  -57.3
1999/02/26 06:10,  999.0,  999.0,  999.0,  -52.8,  -54.0,  -56.0,  -56.1,  -57.1,  -57.8,  -56.8,  -57.7,  -56.9,  -58.2,  -57.3,  -57.5,  -56.9,  -57.6,  -58.1,  -58.0,  -57.4,  -58.3,  -57.2,  -58.4,  -57.1,  -58.2,  -57.3,  -58.6,  -57.1,  -58.3,  -58.2,  -58.4,  -57.1,  -58.0,  -57.4,  -58.1,  -57.1,  -58.2,  -57.7,  -58.2,  -58.1,  -58.1,  -57.5,  -58.0,  -57.1,  -58.4,  -58.0,  -58.8,  -57.2,  -58.0,  -58.0,  -58.9,  -57.8
1999/02/26 06:20,  999.0,  999.0,  999.0,  999.0,  -54.4,  -54.5,  -55.6,  -55.4,  -54.4,  -55.2,  -56.5,  -56.5,  -58.0,  -56.5,  -57.1,  -56.8,  -57.4,  -57.3,  -57.8,  -56.9,  -57.9,  -57.6,  -58.5,  -57.2,  -58.4,  -57.6,  -57.9,  -56.8,  -57.7,  -57.5,  -58.0,  -56.9,  -57.8,  -57.9,  -58.0,  -56.9,  -58.0,  -57.2,  -58.6,  -57.3,  -58.5,  -58.0,  -58.8,  -56.5,  -58.6,  -57.6,  -58.3,  -57.1,  -58.2,  -58.1,  -58.1,  -56.6
1999/02/26 06:30,  999.0,  999.0,  999.0,  -58.5,  -55.9,  -55.3,  -55.8,  -56.0,  -55.6,  -56.5,  -57.6,  -56.6,  -58.1,  -57.4,  -57.7,  -56.6,  -57.4,  -57.7,  -58.4,  -57.0,  -58.6,  -57.8,  -57.9,  -57.5,  -58.5,  -58.2,  -58.6,  -57.2,  -58.4,  -58.1,  -58.3,  -57.4,  -58.4,  -58.0,  -58.5,  -57.2,  -58.5,  -57.4,  -58.3,  -57.4,  -58.3,  -57.8,  -58.1,  -57.0,  -58.3,  -57.2,  -57.9,  -57.1,  -57.6,  -57.8,  -58.5,  -56.9
1999/02/26 06:40,  999.0,  999.0,  999.0,  -58.7,  -55.8,  -55.0,  -55.5,  -55.3,  -53.8,  -55.3,  -57.3,  -56.5,  -57.6,  -56.3,  -58.0,  -56.5,  -57.5,  -57.3,  -58.1,  -56.9,  -57.9,  -57.0,  -58.0,  -56.1,  -57.8,  -57.4,  -58.2,  -56.5,  -58.5,  -57.5,  -58.0,  -57.3,  -58.4,  -57.8,  -58.2,  -57.3,  -58.5,  -57.1,  -58.6,  -56.4,  -58.3,  -57.9,  -57.7,  -56.4,  -58.7,  -57.5,  -58.9,  -56.3,  -58.6,  -57.8,  -58.3,  -57.1
1999/02/26 06:50,  999.0,  999.0,  999.0,  -56.3,  -55.9,  -54.7,  -55.3,  -51.6,  -53.7,  -55.2,  -57.0,  -56.5,  -57.4,  -56.6,  -57.6,  -57.3,  -58.2,  -57.6,  -57.9,  -56.8,  -58.2,  -57.8,  -58.3,  -57.0,  -58.8,  -57.8,  -58.6,  -57.2,  -58.0,  -57.3,  -58.4,  -57.2,  -58.2,  -58.1,  -58.8,  -57.4,  -58.2,  -57.4,  -59.2,  -57.2,  -58.0,  -57.7,  -58.4,  -57.1,  -58.4,  -58.1,  -58.4,  -57.0,  -58.5,  -57.7,  -59.2,  -57.2
1999/02/26 07:00,  999.0,  999.0,  999.0,  999.0,  -57.7,  999.0,  999.0,  -53.3,  -56.0,  -54.2,  -53.4,  -55.9,  -58.1,  -57.1,  -57.6,  -57.0,  -57.8,  -58.1,  -57.9,  -56.4,  -58.3,  -57.7,  -58.3,  -56.8,  -58.3,  -58.1,  -58.5,  -56.4,  -57.6,  -57.6,  -58.4,  -56.7,  -58.5,  -58.0,  -60.0,  -57.6,  -57.2,  -58.6,  -58.8,  -57.3,  -58.0,  -56.8,  -58.8,  -56.8,  -58.1,  -58.1,  -58.6,  -57.5,  -58.4,  -57.4,  -57.2,  -56.7
1999/02/26 07:10,  999.0,  999.0,  999.0,  -61.3,  -55.7,  -54.9,  -56.7,  -55.5,  -54.4,  -56.3,  -56.8,  -56.7,  -57.7,  -57.3,  -58.1,  -56.5,  -57.7,  -57.9,  -57.6,  -57.1,  -58.3,  -57.4,  -58.1,  -57.1,  -57.9,  -57.8,  -58.4,  -57.4,  -58.1,  -58.0,  -58.2,  -57.4,  -58.2,  -58.7,  -58.6,  -57.0,  -58.2,  -57.5,  -58.1,  -56.7,  -58.3,  -58.3,  -59.1,  -57.2,  -58.2,  -57.7,  -58.3,  -57.4,  -58.6,  -57.7,  -58.5,  -57.3
1999/02/26 07:20,  999.0,  999.0,  999.0,  -59.5,  -55.7,  -54.1,  -54.6,  -54.6,  -54.8,  -56.3,  -57.2,  -56.5,  -57.4,  -57.3,  -57.9,  -56.8,  -58.2,  -57.3,  -57.9,  -56.8,  -58.0,  -57.6,  -57.9,  -57.4,  -58.2,  -58.0,  -58.3,  -57.5,  -57.9,  -58.0,  -58.4,  -57.3,  -57.8,  -57.6,  -58.1,  -57.6,  -58.3,  -57.3,  -58.3,  -57.1,  -58.3,  -57.4,  -58.3,  -57.5,  -58.5,  -57.9,  -58.4,  -57.4,  -58.1,  -58.0,  -58.4,  -57.2
1999/02/26 07:30,  999.0,  999.0,  999.0,  -56.2,  -51.4,  -50.6,  -52.8,  -51.8,  -53.1,  -54.5,  -54.8,  -54.7,  -56.0,  -56.4,  -56.5,  -56.2,  -57.0,  -57.0,  -57.0,  -56.2,  -56.9,  -56.8,  -58.0,  -56.8,  -58.0,  -57.5,  -59.0,  -56.9,  -58.7,  -58.2,  -58.3,  -56.7,  -58.2,  -57.4,  -58.6,  -56.9,  -58.5,  -57.8,  -58.4,  -56.9,  -58.5,  -57.9,  -58.1,  -56.7,  -58.9,  -57.4,  -58.1,  -56.6,  -58.3,  -57.6,  -58.1,  -56.6
1999/02/26 07:40,  999.0,  999.0,  999.0,  -50.4,  -39.8,  -37.7,  -39.6,  -44.6,  -43.0,  -44.7,  -45.9,  -46.8,  -47.5,  -47.6,  -48.4,  -48.9,  -49.2,  -48.4,  -50.3,  -49.1,  -51.7,  -50.0,  -51.9,  -55.7,  -57.3,  -60.6,  -61.4,  -59.4,  -59.4,  -59.2,  -59.6,  -58.2,  -59.2,  -57.7,  -58.5,  -57.4,  -59.3,  -57.7,  -59.1,  -57.5,  -58.5,  -57.9,  -58.6,  -56.9,  -58.2,  -58.2,  -58.5,  -56.8,  -57.9,  -57.6,  -58.5,  -57.5
1999/02/26 07:50,  999.0,  999.0,  999.0,  -46.7,  -34.8,  -34.4,  -36.4,  -38.6,  -39.7,  -41.6,  -44.0,  -44.9,  -45.9,  -46.4,  -46.9,  -47.7,  -48.7,  -49.9,  -50.9,  -51.8,  -52.6,  -53.6,  -54.5,  -55.4,  -57.1,  -61.7,  999.0,  -57.9,  -56.4,  -57.5,  -57.3,  -57.2,  -58.5,  -58.2,  -58.6,  -56.8,  -58.6,  -57.6,  -58.4,  -57.4,  -58.3,  -57.6,  -58.5,  -57.8,  -58.9,  -57.8,  -58.9,  -57.3,  -58.9,  -57.7,  -58.3,  -57.4
1999/02/26 08:00,  999.0,  999.0,  999.0,  -53.1,  -41.0,  -37.9,  -39.9,  -41.9,  -44.0,  -45.8,  -46.1,  -48.9,  -50.7,  -51.2,  -52.4,  -54.1,  -54.1,  -55.2,  -55.8,  -56.2,  -58.4,  -57.1,  -58.1,  -61.3,  -60.6,  -57.8,  -57.8,  -56.8,  -58.5,  -57.8,  -58.0,  -57.0,  -58.6,  -57.9,  -58.1,  -57.1,  -58.3,  -57.7,  -57.7,  -57.0,  -58.3,  -57.9,  -58.4,  -57.4,  -58.1,  -57.9,  -58.2,  -57.0,  -58.2,  -57.8,  -58.6,  -56.9
1999/02/26 08:10,  999.0,  999.0,  999.0,  -49.6,  -36.9,  -35.6,  -38.0,  -40.2,  -41.9,  -43.6,  -45.6,  -47.1,  -48.6,  -49.7,  -50.4,  -50.2,  -49.9,  -50.0,  -50.5,  -50.9,  -51.3,  -52.0,  -53.2,  -53.5,  -54.6,  -54.1,  -55.1,  -55.9,  -56.2,  -57.7,  -58.4,  -57.2,  -58.3,  -58.0,  -58.7,  -57.3,  -58.7,  -57.9,  -58.6,  -56.9,  -58.3,  -57.8,  -58.7,  -56.9,  -58.1,  -57.7,  -58.7,  -57.2,  -58.4,  -57.6,  -58.7,  -57.4
1999/02/26 08:20,  999.0,  999.0,  999.0,  -55.3,  -44.2,  -44.6,  -43.5,  -44.2,  -47.7,  -48.2,  -48.9,  -49.2,  -49.9,  -50.7,  -50.4,  -50.2,  -47.7,  -50.3,  -48.9,  -49.0,  -48.6,  -48.9,  -50.5,  -51.8,  -52.4,  -52.3,  -53.4,  -54.1,  -54.2,  -55.5,  -53.3,  -54.8,  -56.8,  -56.8,  -57.6,  -57.3,  -58.4,  -57.4,  -58.5,  -57.9,  -58.0,  -57.8,  -58.7,  -57.7,  -58.2,  -57.9,  -58.6,  -57.6,  -58.4,  -57.9,  -58.1,  -56.9
1999/02/26 08:30,  999.0,  999.0,  999.0,  -44.8,  -34.0,  -32.1,  -33.9,  -35.9,  -35.7,  -36.6,  -38.0,  -38.5,  -38.8,  -39.7,  -39.6,  -40.1,  -41.0,  -40.9,  -40.9,  -41.6,  -43.0,  -44.2,  -45.2,  -45.8,  -46.2,  -46.6,  -47.0,  -48.4,  -48.9,  -49.2,  -49.8,  -50.3,  -50.6,  -51.3,  -50.0,  -50.7,  -51.5,  -53.8,  -55.1,  -54.7,  -57.1,  -56.2,  -57.8,  -56.1,  -57.9,  -57.2,  -57.6,  -57.0,  -57.6,  -57.7,  -58.2,  -56.6
1999/02/26 08:40,  999.0,  999.0,  999.0,  -45.1,  -32.3,  -30.8,  -31.9,  -33.5,  -34.6,  -35.1,  -36.2,  -37.0,  -37.7,  -37.9,  -38.0,  -39.1,  -39.5,  -42.2,  -42.0,  -42.1,  -42.8,  -43.6,  -44.3,  -45.1,  -45.8,  -46.5,  -47.1,  -47.9,  -48.7,  -49.2,  -49.8,  -50.6,  -51.1,  -51.6,  -52.5,  -52.9,  -54.1,  -54.8,  -55.8,  -56.5,  -57.4,  -56.9,  -57.5,  -56.1,  -58.0,  -57.6,  -58.7,  -57.3,  -58.1,  -57.8,  -58.3,  -57.1
1999/02/26 08:50,  999.0,  999.0,  999.0,  -43.7,  -30.0,  -28.4,  -30.1,  -32.1,  -33.6,  -34.4,  -37.0,  -38.5,  -39.2,  -39.8,  -41.1,  -41.1,  -42.1,  -43.5,  -44.2,  -44.8,  -46.3,  -45.6,  -47.5,  -48.6,  -49.9,  -51.4,  -52.8,  -53.4,  -54.4,  -55.1,  -56.3,  -56.3,  -57.8,  -57.6,  -58.4,  -58.3,  -59.3,  -58.1,  -58.5,  -56.4,  -57.6,  -57.3,  -57.9,  -56.7,  -58.3,  -57.2,  -57.8,  -57.0,  -58.4,  -57.4,  -58.3,  -56.7